| time (UTC) | temp C | wind direction | speed KPH | gust KPH | rain 1hr cm | rain 24hr cm | rain mn cm | humidity % | barometer mb |
| 20260506234750 | 5 | 16 | 0.0 | 6.4 | 0.03 | 2.21 | 2.03 | 98 | 1008.5 |
| 20260506231749 | 5 | 74 | 0.0 | 6.4 | 0.03 | 2.21 | 2.03 | 97 | 1008.4 |
| 20260506224748 | 5 | 22 | 1.6 | 9.7 | 0.00 | 2.18 | 2.01 | 97 | 1008.4 |
| 20260506221746 | 5 | 27 | 0.0 | 4.8 | 0.00 | 2.18 | 2.01 | 97 | 1008.3 |
| 20260506214747 | 5 | 49 | 1.6 | 6.4 | 0.05 | 2.21 | 2.01 | 97 | 1008.3 |
| 20260506211749 | 5 | 35 | 1.6 | 8.0 | 0.03 | 2.46 | 1.96 | 97 | 1008.2 |
| 20260506211744 | 5 | 18 | 1.6 | 9.7 | 0.05 | 2.21 | 2.01 | 97 | 1008.4 |
| 20260506201744 | 5 | 355 | 1.6 | 4.8 | 0.05 | 2.46 | 1.96 | 97 | 1008.0 |
| 20260506194744 | 5 | 335 | 1.6 | 6.4 | 0.03 | 2.44 | 1.93 | 97 | 1007.9 |
| 20260506191743 | 5 | 0 | 3.2 | 12.9 | 0.03 | 2.41 | 1.91 | 97 | 1008.0 |
| 20260506184745 | 6 | 48 | 1.6 | 9.7 | 0.08 | 2.41 | 1.91 | 97 | 1008.3 |
| 20260506181744 | 5 | 4 | 1.6 | 11.3 | 0.15 | 2.39 | 1.88 | 97 | 1008.9 |
| 20260506174743 | 5 | 34 | 1.6 | 12.9 | 0.23 | 2.34 | 1.83 | 97 | 1008.7 |
| 20260506171744 | 5 | 30 | 1.6 | 14.5 | 0.33 | 2.24 | 1.73 | 98 | 1009.2 |
| 20260506164744 | 5 | 31 | 3.2 | 12.9 | 0.30 | 2.11 | 1.60 | 97 | 1009.1 |
| 20260506163245 | 6 | 315 | 3.2 | 8.0 | 0.20 | 1.91 | 1.40 | 97 | 1009.1 |
| 20260506160245 | 6 | 357 | 3.2 | 11.3 | 0.13 | 1.80 | 1.30 | 97 | 1008.9 |
| 20260506151743 | 6 | 60 | 1.6 | 6.4 | 0.05 | 1.70 | 1.19 | 97 | 1009.5 |
| 20260506144743 | 6 | 7 | 0.0 | 4.8 | 0.10 | 1.68 | 1.17 | 98 | 1009.3 |
| 20260506141745 | 6 | 303 | 3.2 | 9.7 | 0.20 | 1.65 | 1.14 | 98 | 1009.6 |
| 20260506134743 | 6 | 87 | 4.8 | 12.9 | 0.20 | 1.57 | 1.07 | 98 | 1009.8 |
| 20260506131743 | 7 | 302 | 4.8 | 12.9 | 0.20 | 1.45 | 0.94 | 98 | 1010.2 |
| 20260506124745 | 7 | 70 | 1.6 | 9.7 | 0.20 | 1.37 | 0.86 | 98 | 1010.4 |
| 20260506121742 | 7 | 336 | 1.6 | 4.8 | 0.08 | 1.24 | 0.74 | 98 | 1010.8 |
| 20260506120244 | 7 | 190 | 1.6 | 3.2 | 0.03 | 1.17 | 0.66 | 98 | 1010.5 |
| 20260506111744 | 8 | 189 | 0.0 | 1.6 | 0.03 | 1.17 | 0.66 | 98 | 1010.0 |
| 20260506104744 | 8 | 189 | 0.0 | 3.2 | 0.05 | 1.14 | 0.64 | 98 | 1010.3 |
| 20260506101744 | 8 | 189 | 0.0 | 4.8 | 0.08 | 1.14 | 0.64 | 98 | 1010.4 |
| 20260506094744 | 8 | 343 | 0.0 | 3.2 | 0.05 | 1.09 | 0.58 | 98 | 1010.8 |
| 20260506091742 | 8 | 315 | 0.0 | 3.2 | 0.08 | 1.07 | 0.56 | 98 | 1010.5 |
| 20260506084744 | 8 | 314 | 0.0 | 6.4 | 0.08 | 1.04 | 0.53 | 98 | 1011.4 |
| 20260506083243 | 8 | 78 | 1.6 | 3.2 | 0.05 | 0.99 | 0.48 | 98 | 1011.1 |
| 20260506080242 | 8 | 72 | 0.0 | 3.2 | 0.05 | 0.97 | 0.46 | 98 | 1010.8 |
| 20260506071743 | 9 | 72 | 1.6 | 4.8 | 0.05 | 0.94 | 0.43 | 98 | 1010.8 |
| 20260506061742 | 9 | 336 | 0.0 | 3.2 | 0.13 | 0.89 | 0.38 | 97 | 1011.0 |
| 20260506044737 | 10 | 334 | 0.0 | 3.2 | 0.25 | 0.69 | 0.18 | 97 | 1010.8 |
| 20260506041734 | 10 | 344 | 1.6 | 8.0 | 0.23 | 0.58 | 0.08 | 96 | 1011.2 |
| 20260506034733 | 11 | 357 | 1.6 | 8.0 | 0.10 | 0.43 | 0.64 | 96 | 1010.7 |
| 20260506031735 | 11 | 355 | 1.6 | 4.8 | 0.03 | 0.36 | 0.58 | 97 | 1010.3 |
| 20260506030233 | 12 | 324 | 3.2 | 12.9 | 0.00 | 0.33 | 0.53 | 98 | 1009.6 |
| 20260506021731 | 12 | 35 | 1.6 | 4.8 | 0.00 | 0.33 | 0.53 | 98 | 1009.4 |
| 20260506014731 | 12 | 72 | 1.6 | 4.8 | 0.00 | 0.33 | 0.53 | 98 | 1009.0 |
| 20260506011729 | 12 | 135 | 0.0 | 1.6 | 0.00 | 0.33 | 0.53 | 97 | 1008.9 |
| 20260506004728 | 12 | 135 | 0.0 | 4.8 | 0.00 | 0.33 | 0.53 | 97 | 1008.4 |
| 20260506001728 | 12 | 134 | 0.0 | 4.8 | 0.00 | 0.33 | 0.53 | 97 | 1008.4 |